Location: Unspecified
(43.3830°N, 0.0000°E)
Time: 15:25:35
(UTC+00:00)

Explorer 7 - Pass Details

Date: 27 June 2019
Orbit: 485 x 680 km, 50.3° (Epoch: 20 August)

Event Time Altitude Azimuth Distance (km) Brightness Sun altitude
Rises 12:26:05 0° 299° (WNW) 2,899 10.5 69.4°
Reaches altitude 10° 12:28:21 10° 298° (WNW) 2,019 9.8 69.3°
Maximum altitude 12:33:01 78° 213° (SSW) 673 9.7 69.0°
Drops below altitude 10° 12:37:52 10° 127° (SE) 2,096 10.0 68.7°
Sets 12:40:16 0° 126° (SE) 3,018 10.7 68.5°
